欧洲卫星公司-2星 (SES-2)

导读

SES 2是由SES公司主导的通信卫星,于2011年9月21日北京时间8点成功发射。该卫星定位于地球静止轨道,主要面向北美地区提供电视广播、宽带网络和企业通信服务,凭借高功率转发器实现稳定信号覆盖。作为SES星座的重要组成部分,它接替老旧卫星 capacity,增强了网络韧性,至今仍为用户提供可靠的卫星通信支撑,推动了区域数字化连接与媒体传输发展。

基本信息
目录编号:
37809
目录名称:
SES 2
国际标识:
2011-049A
轨道中心:
EARTH
卫星名称:
欧洲卫星公司-2星
卫星全名:
欧洲卫星公司-2星 (SES-2)
卫星状态:
在轨 (已飞行5423 天)
发射日期:
2011-09-21 UTC
国别 :
(SES)
星等 :
--
轨道信息
数据来源 国际轨道数据 AOE轨道数据
星历时间 2026-07-27T20:22:42+0800
9小时前
查看轨道信息
2026-07-26T10:00:00+0800
1天前
查看轨道信息
半长轴 42164.756km 42164.672km
偏心率 0.0003089 0.0003052
轨道倾角 0.157° 0.154°
近地点辐角 32.048° 29.232°
升交点赤经 90.293° 90.356°
平近点角 281.524° 127.188°
近地点 35773.594km 35773.666km
远地点 35799.644km 35799.404km
周期 1436.098分钟 1436.094分钟
每日圈数 1.002717 1.00272
详细信息
卫星平台:
Star-2.4
平衡模式:
三轴稳定
覆盖范围:
大西洋
运营商:
欧洲卫星公司
运营商所在国:
卢森堡
制造商(研发单位):
轨道ATK公司
制造商所在国:
美国
使用方式:
暂无
卫星简介
欧洲卫星公司:成立于1985年,总部设在卢森堡。该公司通过运营ASTRA、AMERICOM及 NEW SKIES卫星系统为客户提供电视、广播和多媒体直接到户的信息传送服务,是世界第二大卫星运营商。该卫星仍在工作。
2D轨道图
3D轨道图
轨道高度分析图
轨道倾角分析图
轨道综合分析图
查看轨道综合分析图